Portland, ME

9:57 PM EST on December 13, 2019 (GMT -0500)
Portland International

Weather History for KPWM - October, 2019

Change the Weather History Date:

Saturday, October 19, 2019

  Actual Average Record
Temperature  
Mean Temperature 47 °F 48 °F  
Max Temperature 59 °F 58 °F 81 °F (1963)
Min Temperature 35 °F 38 °F 21 °F (1948)
Degree Days  
Heating Degree Days 18 17  
Month to date heating degree days 233 271  
Since 1 July heating degree days 395 492  
Cooling Degree Days 0 0  
Month to date cooling degree days 0 0  
Year to date cooling degree days 474 358  
Moisture  
Dew Point 35 °F    
Average Humidity 65    
Maximum Humidity 85    
Minimum Humidity 40    
Precipitation  
Precipitation 0.00 in 0.16 in 1.06 in (1914)
Month to date precipitation 2.29 2.93  
Year to date precipitation 37.02 36.36  
Snow  
Snow 0.00 in 0.00 in 0.10 in (1959)
Month to date snowfall 0.0 0.0  
Since 1 July snowfall 0.0 0.0  
Since 1 September snowfall 0.0 0.0  
Snow Depth 0.00 in    
Sea Level Pressure  
Sea Level Pressure 29.97 in    
Wind  
Wind Speed 5 mph ()    
Max Wind Speed 17 mph    
Max Gust Speed 20 mph    
Visibility 10.0 miles    
Events      
T = Trace of Precipitation, MM = Missing Value Source: Averaged Metar Reports

Daily Weather History Graph

Daily Weather History Graph

Search for Another Location

Airport or City:

Astronomy

Oct. 19, 2019 Rise Set
Actual Time 7:00 AM EDT 5:51 PM EDT
Civil Twilight 6:30 AM EDT 6:20 PM EDT
Nautical Twilight 5:57 AM EDT 6:54 PM EDT
Astronomical Twilight 5:24 AM EDT 7:27 PM EDT
Moon 9:49 PM EDT (10/19) 12:37 PM EDT (10/19)
Length of Visible Light 11h 49m
Length of Day
10h 51m
Waning Gibbous, 70% of the Moon is Illuminated
Oct 19
Waning Gibbous
Oct 21
Last Quarter
Oct 27
New
Nov 4
First Quarter
Nov 12
Full

Hourly Weather History & Observations

Time (EDT) Temp. Windchill Dew Point Humidity Pressure Visibility Wind Dir Wind Speed Gust Speed Precip Events Conditions
12:51 AM 43.0 °F 40.3 °F 35.1 °F 74% 29.88 in 10.0 mi WSW 4.6 mph - N/A   Clear
1:51 AM 39.9 °F 36.7 °F 35.1 °F 83% 29.89 in 10.0 mi South 4.6 mph - N/A   Clear
2:51 AM 39.9 °F 36.7 °F 34.0 °F 79% 29.90 in 10.0 mi SSW 4.6 mph - N/A   Clear
3:51 AM 39.9 °F 35.1 °F 34.0 °F 79% 29.91 in 10.0 mi WSW 6.9 mph - N/A   Clear
4:51 AM 39.0 °F 35.7 °F 33.1 °F 79% 29.92 in 10.0 mi SW 4.6 mph - N/A   Clear
5:51 AM 37.9 °F 33.5 °F 33.1 °F 83% 29.93 in 10.0 mi WSW 5.8 mph - N/A   Clear
6:51 AM 37.9 °F 32.1 °F 32.0 °F 79% 29.94 in 10.0 mi WNW 8.1 mph - N/A   Clear
7:51 AM 41.0 °F 34.7 °F 34.0 °F 76% 29.96 in 10.0 mi WNW 10.4 mph - N/A   Clear
8:51 AM 46.9 °F - 36.0 °F 66% 29.97 in 10.0 mi NW 9.2 mph - N/A   Clear
9:51 AM 50.0 °F - 36.0 °F 59% 29.97 in 10.0 mi WNW 9.2 mph - N/A   Clear
10:51 AM 52.0 °F - 35.1 °F 53% 29.98 in 10.0 mi NNW 9.2 mph - N/A   Partly Cloudy
11:51 AM 55.0 °F - 35.1 °F 47% 29.98 in 10.0 mi NW 6.9 mph - N/A   Clear
12:51 PM 55.9 °F - 34.0 °F 44% 29.96 in 10.0 mi NW 12.7 mph - N/A   Clear
1:51 PM 57.0 °F - 35.1 °F 44% 29.95 in 10.0 mi NW 11.5 mph - N/A   Clear
2:51 PM 57.9 °F - 36.0 °F 44% 29.95 in 10.0 mi West 6.9 mph - N/A   Clear
3:51 PM 57.9 °F - 35.1 °F 42% 29.95 in 10.0 mi NNW 5.8 mph - N/A   Clear
4:51 PM 57.0 °F - 34.0 °F 42% 29.96 in 10.0 mi NNW 8.1 mph - N/A   Clear
5:51 PM 50.0 °F - 39.0 °F 66% 29.98 in 10.0 mi Calm Calm - N/A   Clear
6:51 PM 48.0 °F - 33.1 °F 56% 29.99 in 10.0 mi Calm Calm - N/A   Clear
7:51 PM 44.1 °F - 34.0 °F 68% 30.02 in 10.0 mi Calm Calm - N/A   Clear
8:51 PM 42.1 °F 39.2 °F 35.1 °F 76% 30.03 in 10.0 mi North 4.6 mph - N/A   Clear
9:51 PM 43.0 °F - 35.1 °F 74% 30.05 in 10.0 mi Calm Calm - N/A   Clear
10:51 PM 39.0 °F - 33.1 °F 79% 30.06 in 10.0 mi Calm Calm - N/A   Clear
11:51 PM 39.9 °F - 33.1 °F 77% 30.05 in 10.0 mi Calm Calm - N/A   Clear